This demonstration page uses our WeatherBlox Daily Observations layout. Learn more.

Left ArrowRight Arrow

41.12389, -100.76542

Hourly Observations for July 9, 2015

Temp ( °F °C ) Dew Point ( °F °C ) Humidity (%) Winds ( mph kmh ) Pressure ( in mb ) Visibility ( mi km ) Precip ( " mm )
12:53 am 00:53 Cloudy 61 16.1 58 14.4 90 90 Calm 30.03 1017 10 16 0.00 0.00
1:53 am 01:53 Cloudy 61 16.1 58 14.4 90 90 Calm 30.03 1017 10 16 0.00 0.03
2:53 am 02:53 Mostly Cloudy 59 15 58 14.4 96 96 Calm 30.03 1017 10 16 0.00 0.00
3:53 am 03:53 Mostly Cloudy 60 15.6 58 14.4 93 93 Calm 30.03 1017 8 13 0.00 0.00
4:53 am 04:53 Cloudy with Mist and Fog 60 15.6 58 14.4 93 93 Calm 30.02 1017 6 10 0.00 0.00
5:53 am 05:53 Cloudy 60 15.6 58 14.4 93 93 Calm 30.04 1017 7 11 0.00 0.00
6:53 am 06:53 Cloudy with Mist and Fog 60 15.6 58 14.4 93 93 Calm 30.05 1018 6 10 0.00 0.00
7:53 am 07:53 Cloudy 61 16.1 58 14.4 90 90 Calm 30.06 1018 9 14 0.00 0.00
8:53 am 08:53 Cloudy 62 16.7 57 13.9 84 84 S 3 6 30.07 1018 10 16 0.00 0.03
9:53 am 09:53 Cloudy with Light Rain 63 17.2 57 13.9 81 81 WSW 5 7 30.06 1018 10 16 0.00 0.03
10:53 am 10:53 Cloudy 63 17.2 57 13.9 81 81 Calm 30.06 1018 10 16 0.01 0.25
11:53 am 11:53 Cloudy 66 18.9 57 13.9 73 73 S 3 6 30.05 1018 10 16 0.00 0.00
12:53 pm 12:53 Mostly Cloudy 70 21.1 54 12.2 57 57 Calm 30.02 1017 10 16 0.00 0.00
1:53 pm 13:53 Mostly Cloudy 74 23.3 57 13.9 56 56 E 6 9 30.00 1016 10 16 0.00 0.00
2:53 pm 14:53 Mostly Cloudy 76 24.4 57 13.9 52 52 S 3 6 29.98 1015 10 16 0.00 0.00
3:53 pm 15:53 Mostly Cloudy 76 24.4 50 10 40 40 S 6 9 29.96 1015 10 16 0.00 0.00
4:53 pm 16:53 Mostly Sunny 80 26.7 52 11.1 38 38 SSE 8 13 29.93 1014 10 16 0.00 0.00
5:53 pm 17:53 Mostly Sunny 79 26.1 53 11.7 41 41 S 7 11 29.93 1014 10 16 0.00 0.00
6:53 pm 18:53 Cloudy 77 25 56 13.3 48 48 SSE 3 6 29.93 1014 10 16 0.00 0.00
7:53 pm 19:53 Cloudy 76 24.4 55 12.8 48 48 SE 7 11 29.92 1013 10 16 0.00 0.00
8:53 pm 20:53 Cloudy 72 22.2 56 13.3 57 57 SE 6 9 29.93 1014 10 16 0.00 0.00
9:53 pm 21:53 Clear 65 18.3 58 14.4 78 78 E 6 9 29.93 1014 10 16 0.00 0.00
10:53 pm 22:53 Clear 63 17.2 57 13.9 81 81 E 7 11 29.96 1015 10 16 0.00 0.00
11:53 pm 23:53 Clear 62 16.7 58 14.4 86 86 ESE 6 9 29.97 1015 10 16 0.00 0.00

Powered by AerisWeather